Flag for U.S.A. Weather past 2 weeks in Las Cruces, New Mexico, U.S.A.

65 °F


Feels Like: 65 °F
Forecast: 61 / 71 °F
Wind: 5 mph from Southeast

Location: Las Cruces International

Current Time: Oct 3, 2015 at 11:01:04 PM

Latest Report: Oct 3, 2015 at 9:55 PM

Visibility: 10 mi

Pressure: 29.86 "Hg (25.98 "Hg at 1187m altitude)

Humidity: 72%

Dew point: 56 °F

Location of Las CrucesLocation

Historic Weather in Las Cruces — Graph


Las Cruces temperature yesterday

Maximum temperature yesterday: 93 °F (at 2:15 PM)
Minimum temperature yesterday: 56 °F (at 5:15 AM)
Average temperature yesterday: 75 °F

Past Weeks' High & Low Weather Summary

High95 °F (Sep 28, 3:15 PM)98% (Sep 20, 6:35 AM)30.31 "Hg (Sep 20, 6:35 AM)
Low56 °F (Oct 1, 7:15 AM)11% (Sep 28, 1:55 PM)29.78 "Hg (Oct 3, 5:15 PM)
Average73 °F50%30.10 "Hg
* Reported Sep 18 9:15 PM — Oct 3 9:35 PM, Las Cruces, Weather by CustomWeather, © 2015

Note: Actual official high and low records may vary slightly from our data, if they occured in-between our weather recording intervals... More about our weather records


Las Cruces weather history for previous 24 hours

Time TempWeatherWind HumidityBarometerVisibility
9:35 PM
Sat, Oct 3
64 °FPassing clouds.3 mph76%29.86 "Hg10 mi
9:15 PM66 °FPassing clouds.6 mph70%29.86 "Hg10 mi
8:55 PM66 °FOvercast.10 mph69%29.86 "Hg10 mi
8:35 PM66 °FOvercast.9 mph66%29.84 "Hg10 mi
8:15 PM66 °FPassing clouds.10 mph69%29.83 "Hg10 mi
7:55 PM67 °FPassing clouds.10 mph68%29.82 "Hg10 mi
7:35 PM66 °FOvercast.6 mph74%29.82 "Hg10 mi
7:15 PM65 °FThunderstorms. More clouds than sun.6 mph85%29.81 "Hg10 mi
6:55 PM67 °FThunderstorms. Broken clouds.No wind71%29.82 "Hg10 mi
6:35 PM70 °FScattered clouds.5 mph59%29.80 "Hg10 mi
6:15 PM71 °FSunny.5 mph54%29.79 "Hg10 mi
5:55 PM72 °FSunny.7 mph51%29.78 "Hg10 mi
5:35 PM70 °FSunny.No wind60%29.79 "Hg10 mi
5:15 PM70 °FSunny.7 mph58%29.78 "Hg10 mi
4:55 PM71 °FScattered clouds.7 mph60%29.79 "Hg10 mi
4:35 PM70 °FScattered clouds.10 mph61%29.81 "Hg10 mi
3:15 PM70 °FThundershowers. Cloudy.6 mph71%29.80 "Hg10 mi
2:55 PM67 °FThunderstorms. Cloudy.6 mph79%29.81 "Hg10 mi
2:35 PM67 °FThunderstorms. Broken clouds.3 mph85%29.79 "Hg10 mi
2:15 PM68 °FThunderstorms. Broken clouds.7 mph87%29.80 "Hg7 mi
1:55 PM65 °FCloudy.10 mph88%29.81 "Hg10 mi
1:35 PM68 °FStrong thunderstorms. Cloudy.13 mph76%29.86 "Hg1 mi
1:15 PM74 °FScattered clouds.12 mph58%29.83 "Hg10 mi
12:55 PM72 °FThunderstorms. Scattered clouds.8 mph67%29.84 "Hg10 mi
12:35 PM71 °FThundershowers. Mostly cloudy.No wind61%29.86 "Hg10 mi
12:15 PM67 °FThunderstorms. Overcast.14 mph71%29.86 "Hg7 mi
11:55 AM80 °FBroken clouds.12 mph36%29.86 "Hg10 mi
11:15 AM78 °FSunny.10 mph39%29.88 "Hg10 mi
10:55 AM78 °FSunny.9 mph39%29.88 "Hg10 mi
10:15 AM74 °FSunny.7 mph45%29.89 "Hg10 mi
9:55 AM72 °FSunny.8 mph53%29.90 "Hg10 mi
9:15 AM69 °FThundershowers. Scattered clouds.3 mph64%29.90 "Hg10 mi
8:55 AM68 °FThundershowers. Partly sunny.No wind71%29.90 "Hg10 mi
8:35 AM63 °FThunderstorms. Broken clouds.3 mph81%29.90 "Hg10 mi
8:15 AM63 °FThunderstorms. Cloudy.No wind71%29.90 "Hg5 mi
7:55 AM64 °FThundershowers. Passing clouds.6 mph50%29.90 "Hg10 mi
7:35 AM61 °FClear.6 mph55%29.89 "Hg10 mi
7:15 AM63 °FPassing clouds.3 mph52%29.88 "Hg10 mi
6:55 AM63 °FPassing clouds.3 mph51%29.88 "Hg10 mi
6:35 AM63 °FPassing clouds.3 mph50%29.88 "Hg10 mi
6:15 AM62 °FClear.5 mph52%29.88 "Hg10 mi
5:55 AM61 °FClear.5 mph53%29.88 "Hg10 mi
5:35 AM60 °FClear.No wind54%29.88 "Hg10 mi
5:15 AM61 °FClear.No wind54%29.87 "Hg10 mi
4:55 AM62 °FClear.5 mph51%29.87 "Hg10 mi
4:15 AM64 °FClear.5 mph48%29.87 "Hg10 mi
3:55 AM65 °FClear.No wind47%29.87 "Hg10 mi
2:35 AM69 °FClear.7 mph41%29.88 "Hg10 mi
2:15 AM71 °FClear.7 mph38%29.88 "Hg10 mi
1:55 AM72 °FPassing clouds.8 mph35%29.88 "Hg10 mi
1:35 AM71 °FPassing clouds.7 mph38%29.88 "Hg10 mi
1:15 AM68 °FPassing clouds.7 mph44%29.88 "Hg10 mi
12:55 AM68 °FClear.3 mph44%29.88 "Hg10 mi
12:15 AM68 °FClear.3 mph44%29.88 "Hg10 mi
Weather by CustomWeather, © 2015

See weather overviewHow to use our weather pages